Cloud_Cover
100 100 100 97 98 97 23 52 46 5 4 3 0 20 5 5 12 0 0 5 100 100 100 100 100 100 95 100 100 100 99 61 3 93 100 100 100 100 100 79 100 85 5 5
100 100 67 41 5 57 82 5 4 1 0 0 0 0 5 0 0 0 1 0 10 61 12 96 74 99 100 78 62 5 9 72 100 100 100 100 100 100 91 30 5 71 54 77
5 10 42 7 5 17 12 2 0 0 0 0 0 4 4 0 0 0 0 0 0 0 0 17 30 75 22 1 12 81 43 92 100 100 98 100 100 100 100 100 89 93 100 100
3 1 43 0 5 3 0 1 3 3 0 0 0 4 0 0 0 0 0 0 0 0 0 0 0 0 0 0 0 1 27 53 99 100 44 5 71 98 99 100 100 100 100 100
37 78 77 8 54 21 2 0 0 0 11 67 17 32 1 0 3 42 38 0 0 0 0 0 0 0 0 0 0 0 0 0 3 1 23 100 100 65 95 100 100 100 100 74
83 51 9 63 5 5 6 13 5 4 4 4 22 50 4 1 4 5 0 0 0 0 0 0 0 0 0 0 0 0 0 0 0 0 5 72 100 99 70 33 100 100 100 92
3 0 3 71 52 4 5 58 6 0 0 4 3 0 0 0 0 0 0 0 0 0 0 0 0 0 0 0 0 0 0 0 0 0 0 8 100 100 100 100 84 100 100 100
0 0 0 0 0 0 0 2 1 0 0 0 4 0 0 0 0 0 0 0 0 0 0 0 0 0 0 0 0 0 0 0 0 0 11 25 14 3 4 4 32 78 100 100
42 13 0 0 0 0 0 0 0 5 0 0 0 0 0 0 0 0 0 0 0 0 0 0 0 0 0 0 0 0 0 0 0 0 42 89 44 5 5 14 78 100 100 100
85 50 4 5 0 0 0 0 0 1 0 2 0 0 0 0 0 0 0 0 0 0 0 0 0 0 0 0 0 0 0 0 0 0 13 8 3 7 38 46 98 81 100 100
71 100 89 8 5 5 5 4 0 0 0 0 0 0 0 0 0 0 0 0 0 0 0 0 0 0 0 0 0 0 0 0 0 0 0 0 7 22 49 69 91 97 100 100
100 81 12 5 38 5 5 3 0 0 0 0 0 0 0 0 0 0 0 0 0 0 0 0 0 0 0 0 0 0 0 0 7 33 76 62 65 74 97 100 100 100 100 100
0 6 89 5 3 5 5 0 0 0 0 0 0 0 0 0 0 0 0 0 0 0 0 0 0 0 0 0 0 0 0 0 0 14 52 87 100 100 100 100 100 100 100 100
0 0 0 0 0 0 0 0 0 0 0 0 0 0 0 0 0 0 0 0 0 0 0 0 0 0 0 0 0 0 0 0 9 29 32 52 72 100 100 100 100 100 100 100
0 0 0 0 0 0 0 0 0 0 0 0 0 0 0 0 0 0 0 0 0 0 0 0 0 0 0 6 6 0 0 3 16 47 84 100 100 99 100 100 100 100 100 100
0 0 0 0 0 0 0 0 0 0 0 0 0 0 0 0 0 0 0 0 0 0 0 0 0 0 0 0 0 0 0 10 36 99 100 100 100 100 100 77 100 100 100 100
0 0 0 0 0 0 0 0 0 0 0 0 0 0 0 0 0 0 0 0 0 0 0 0 0 0 0 0 0 2 0 8 26 59 100 100 100 100 100 100 100 100 100 100
0 0 0 0 0 0 0 0 0 0 0 0 0 0 0 0 0 0 0 0 0 0 0 3 3 0 0 0 7 0 4 25 29 63 100 99 100 100 100 100 100 100 100 100
0 0 0 0 0 0 0 0 0 0 0 0 0 0 0 0 0 0 0 0 0 0 4 5 5 0 0 0 2 9 33 30 78 100 99 100 97 100 100 100 100 89 100 100
0 0 0 0 0 0 0 0 0 0 0 0 0 0 0 0 0 0 1 3 5 32 84 2 0 0 0 2 4 16 24 33 48 36 42 64 84 100 100 100 100 100 100 100
0 0 0 0 0 0 0 0 0 0 0 0 0 1 5 5 5 5 6 68 44 3 0 0 0 0 0 7 22 26 17 24 1 4 18 34 30 76 79 100 100 100 100 100
0 0 0 0 0 0 0 0 0 0 0 0 0 0 1 4 8 5 5 3 4 0 0 0 0 0 0 13 20 16 23 0 2 13 25 35 38 47 40 60 70 94 92 99
0 0 0 0 0 0 0 0 0 0 0 0 3 2 14 38 13 40 5 5 3 0 0 0 0 0 0 18 13 14 0 8 18 25 34 26 31 28 22 34 31 35 72 98
0 0 0 0 0 0 0 0 0 0 0 0 0 0 0 0 0 2 5 2 0 0 0 0 0 0 2 11 26 0 1 7 25 31 26 34 40 41 30 30 23 59 74 74
0 0 0 0 2 0 0 0 0 0 0 0 0 0 0 0 0 0 0 0 0 0 0 0 0 0 0 6 11 9 6 19 27 22 26 27 33 89 51 32 93 100 100 100
0 0 3 3 4 0 0 0 0 0 0 0 0 0 0 0 0 0 0 0 4 5 5 21 4 5 5 53 1 8 16 19 17 29 42 42 93 79 85 30 100 98 11 39